Terminal Aerodrome Forecast
Issued by NWS

Home | Current Version | Previous Version | Text Only | Print | Product List | Glossary On
Versions: 1 2 3 4 5 6 7 8 9 10 11 12 13 14 15 16
000
FTUS45 KTFX 220500
TAFLWT
TAF
KLWT 220520Z 2206/2306 29012KT P6SM -SHRA OVC040
     FM220900 25008KT P6SM FEW040
     FM221700 26008G18KT P6SM SCT150=

USA.gov is the U.S. government's official web portal to all federal, state and local government web resources and services.